Terug naar catalogus

SL-8 R/B

ActiefPO
NORAD 7477·ROCKET BODY·🇷🇺 Russia

Gelanceerd Oct 18, 1974 vanaf Plesetsk Cosmodrome

Loading…

Volgende Passages (komende 24 uur)

TLE

VersSource: Space-Track

Epoch: Sep 14, 2026, 10:36 UTC

1 07477U 74079B   26257.44220295 -.00000048  00000-0 -67044-4 0  9991
2 07477  82.9399  66.2193 0034716  59.3760 329.4711 13.74279339602008

Volg SL-8 R/B in realtime met AllMySat

Download on the App Store